Location: Asheville, NC
(35.6000°N, 82.5500°W)
Time: 20:41:34
(UTC-04:00)

UWE-3 - Pass Details

Date: 17 March 2018
Orbit: 585 x 684 km, 97.6° (Epoch: 20 June)

Event Time Altitude Azimuth Distance (km) Brightness Sun altitude
Rises 21:15:59 0° 204° (SSW) 2,931 ? -20.3°
Reaches altitude 10° 21:18:51 10° 224° (SW) 2,007 ? -20.8°
Maximum altitude 21:21:46 17° 266° (W) 1,560 ? -21.4°
Drops below altitude 10° 21:24:39 10° 308° (NW) 1,976 ? -22.0°
Sets 21:27:27 0° 328° (NNW) 2,867 ? -22.5°
